| time (UTC) | temp F | wind direction | speed MPH | gust MPH | rain 1hr in | rain 24hr in | rain mn in | humidity % | barometer mb |
| 20260831114517 | 0 | 0.0 | 0.0 | 0.00 | 0.00 | 0.00 | 1008.5 | ||
| 20260831113013 | 0 | 0.0 | 0.0 | 0.00 | 0.00 | 0.00 | 1008.2 | ||
| 20260831111518 | 0 | 0.0 | 0.0 | 0.00 | 0.00 | 0.00 | 1008.1 | ||
| 20260831110004 | 0 | 0.0 | 0.0 | 0.00 | 0.00 | 0.00 | 1008.0 | ||
| 20260831104501 | 80 | 35 | 2.0 | 9.0 | 0.00 | 0.00 | 0.00 | 59 | 1007.8 |
| 20260831103000 | 80 | 351 | 0.0 | 7.0 | 0.00 | 0.00 | 0.00 | 60 | 1007.1 |
| 20260831101600 | 79 | 22 | 1.0 | 6.0 | 0.00 | 0.00 | 0.00 | 62 | 1007.1 |
| 20260831100057 | 79 | 110 | 2.0 | 12.0 | 0.00 | 0.00 | 0.00 | 62 | 1007.1 |
| 20260831094557 | 79 | 75 | 3.0 | 9.0 | 0.00 | 0.00 | 0.00 | 63 | 1007.0 |
| 20260831093058 | 79 | 108 | 4.0 | 12.0 | 0.00 | 0.00 | 0.00 | 61 | 1007.2 |
| 20260831091607 | 79 | 359 | 4.0 | 14.0 | 0.00 | 0.00 | 0.00 | 61 | 1007.3 |
| 20260831090101 | 79 | 14 | 6.0 | 15.0 | 0.00 | 0.00 | 0.00 | 63 | 1007.8 |
| 20260831084551 | 79 | 351 | 5.0 | 15.0 | 0.00 | 0.00 | 0.00 | 65 | 1007.6 |
| 20260831083048 | 79 | 90 | 5.0 | 15.0 | 0.00 | 0.00 | 0.00 | 66 | 1007.9 |
| 20260831081546 | 79 | 21 | 6.0 | 14.0 | 0.00 | 0.00 | 0.00 | 66 | 1007.9 |
| 20260831080055 | 80 | 132 | 9.0 | 15.0 | 0.00 | 0.00 | 0.00 | 64 | 1007.9 |
| 20260831074541 | 80 | 351 | 7.0 | 14.0 | 0.00 | 0.00 | 0.00 | 64 | 1008.0 |
| 20260831073039 | 81 | 14 | 5.0 | 13.0 | 0.00 | 0.00 | 0.00 | 64 | 1008.0 |
| 20260831071536 | 82 | 314 | 4.0 | 10.0 | 0.00 | 0.00 | 0.00 | 65 | 1007.9 |
| 20260831070036 | 81 | 8 | 2.0 | 11.0 | 0.00 | 0.00 | 0.00 | 64 | 1007.8 |
| 20260831064538 | 81 | 45 | 5.0 | 14.0 | 0.00 | 0.00 | 0.00 | 67 | 1007.6 |
| 20260831063034 | 80 | 2 | 4.0 | 9.0 | 0.00 | 0.00 | 0.00 | 70 | 1007.1 |
| 20260831061522 | 80 | 238 | 2.0 | 7.0 | 0.00 | 0.00 | 0.00 | 67 | 1007.0 |
| 20260831060018 | 81 | 245 | 1.0 | 8.0 | 0.00 | 0.00 | 0.00 | 62 | 1007.0 |
| 20260831054521 | 83 | 218 | 0.0 | 2.0 | 0.00 | 0.00 | 0.00 | 58 | 1007.0 |
| 20260831053021 | 82 | 252 | 0.0 | 6.0 | 0.00 | 0.00 | 0.00 | 59 | 1006.1 |
| 20260831051518 | 82 | 231 | 4.0 | 12.0 | 0.00 | 0.00 | 0.00 | 60 | 1006.4 |
| 20260831050014 | 84 | 225 | 3.0 | 18.0 | 0.00 | 0.00 | 0.00 | 57 | 1006.4 |
| 20260831044513 | 86 | 247 | 7.0 | 17.0 | 0.00 | 0.00 | 0.00 | 52 | 1006.4 |
| 20260831043006 | 88 | 172 | 5.0 | 17.0 | 0.00 | 0.00 | 0.00 | 47 | 1006.1 |
| 20260831041508 | 91 | 268 | 4.0 | 12.0 | 0.00 | 0.00 | 0.00 | 46 | 1006.0 |
| 20260831040059 | 93 | 291 | 2.0 | 14.0 | 0.00 | 0.00 | 0.00 | 41 | 1005.7 |
| 20260831034554 | 96 | 297 | 3.0 | 13.0 | 0.00 | 0.00 | 0.00 | 36 | 1005.4 |
| 20260831033057 | 96 | 264 | 0.0 | 0.0 | 0.00 | 0.00 | 0.00 | 35 | 1004.6 |
| 20260831031501 | 97 | 264 | 0.0 | 1.0 | 0.00 | 0.00 | 0.00 | 36 | 1004.6 |
| 20260831030115 | 97 | 264 | 0.0 | 0.0 | 0.00 | 0.00 | 0.00 | 35 | 1004.3 |
| 20260831024558 | 97 | 269 | 0.0 | 1.0 | 0.00 | 0.00 | 0.00 | 34 | 1004.2 |
| 20260831023056 | 97 | 241 | 0.0 | 2.0 | 0.00 | 0.00 | 0.00 | 34 | 1003.9 |
| 20260831021554 | 98 | 355 | 0.0 | 2.0 | 0.00 | 0.00 | 0.00 | 33 | 1003.6 |
| 20260831020051 | 99 | 35 | 0.0 | 1.0 | 0.00 | 0.00 | 0.00 | 32 | 1003.5 |
| 20260831014549 | 100 | 35 | 0.0 | 1.0 | 0.00 | 0.00 | 0.00 | 30 | 1003.0 |
| 20260831013048 | 101 | 356 | 0.0 | 3.0 | 0.00 | 0.00 | 0.00 | 30 | 1002.9 |
| 20260831011553 | 102 | 3 | 0.0 | 4.0 | 0.00 | 0.00 | 0.00 | 31 | 1002.9 |
| 20260831010044 | 102 | 79 | 0.0 | 3.0 | 0.00 | 0.00 | 0.00 | 29 | 1003.1 |
| 20260831004542 | 103 | 56 | 0.0 | 5.0 | 0.00 | 0.00 | 0.00 | 28 | 1003.2 |
| 20260831003047 | 104 | 244 | 0.0 | 2.0 | 0.00 | 0.00 | 0.00 | 29 | 1003.3 |
| 20260831001536 | 104 | 241 | 0.0 | 1.0 | 0.00 | 0.00 | 0.00 | 28 | 1003.2 |
| 20260831000037 | 105 | 226 | 0.0 | 3.0 | 0.00 | 0.00 | 0.00 | 28 | 1003.3 |
| 20260830234542 | 105 | 303 | 0.0 | 1.0 | 0.00 | 0.00 | 0.00 | 29 | 1003.4 |
| 20260830233028 | 104 | 316 | 0.0 | 3.0 | 0.00 | 0.00 | 0.00 | 28 | 1003.6 |
| 20260830231524 | 105 | 266 | 0.0 | 1.0 | 0.00 | 0.00 | 0.00 | 29 | 1003.8 |
| 20260830230026 | 104 | 269 | 0.0 | 3.0 | 0.00 | 0.00 | 0.00 | 28 | 1004.1 |
| 20260830224519 | 104 | 99 | 0.0 | 7.0 | 0.00 | 0.00 | 0.00 | 27 | 1004.3 |
| 20260830223016 | 104 | 262 | 0.0 | 2.0 | 0.00 | 0.00 | 0.00 | 28 | 1004.5 |
| 20260830221629 | 104 | 116 | 1.0 | 4.0 | 0.00 | 0.00 | 0.00 | 27 | 1004.7 |
| 20260830220043 | 104 | 275 | 1.0 | 4.0 | 0.00 | 0.00 | 0.00 | 28 | 1005.1 |
| 20260830214539 | 105 | 252 | 0.0 | 4.0 | 0.00 | 0.00 | 0.00 | 28 | 1005.5 |
| 20260830213031 | 104 | 247 | 0.0 | 4.0 | 0.00 | 0.00 | 0.00 | 30 | 1005.7 |
| 20260830211532 | 103 | 209 | 0.0 | 4.0 | 0.00 | 0.00 | 0.00 | 30 | 1006.1 |
| 20260830210027 | 104 | 99 | 0.0 | 5.0 | 0.00 | 0.00 | 0.00 | 28 | 1006.3 |
| 20260830204535 | 103 | 297 | 0.0 | 5.0 | 0.00 | 0.00 | 0.00 | 31 | 1006.6 |
| 20260830203017 | 103 | 310 | 0.0 | 3.0 | 0.00 | 0.00 | 0.00 | 31 | 1006.9 |
| 20260830201515 | 102 | 96 | 1.0 | 6.0 | 0.00 | 0.00 | 0.00 | 29 | 1007.1 |
| 20260830200011 | 103 | 145 | 0.0 | 4.0 | 0.00 | 0.00 | 0.00 | 31 | 1007.5 |
| 20260830194508 | 101 | 355 | 0.0 | 5.0 | 0.00 | 0.00 | 0.00 | 32 | 1007.6 |
| 20260830193033 | 101 | 134 | 1.0 | 5.0 | 0.00 | 0.00 | 0.00 | 31 | 1007.8 |
| 20260830191531 | 102 | 224 | 3.0 | 8.0 | 0.00 | 0.00 | 0.00 | 31 | 1008.1 |
| 20260830190027 | 101 | 139 | 1.0 | 4.0 | 0.00 | 0.00 | 0.00 | 33 | 1008.4 |
| 20260830184525 | 101 | 72 | 0.0 | 3.0 | 0.00 | 0.00 | 0.00 | 32 | 1008.7 |
| 20260830183022 | 100 | 258 | 3.0 | 8.0 | 0.00 | 0.00 | 0.00 | 34 | 1008.9 |
| 20260830181519 | 100 | 255 | 0.0 | 5.0 | 0.00 | 0.00 | 0.00 | 34 | 1009.1 |
| 20260830180017 | 99 | 106 | 1.0 | 6.0 | 0.00 | 0.00 | 0.00 | 34 | 1009.3 |
| 20260830174514 | 98 | 221 | 2.0 | 6.0 | 0.00 | 0.00 | 0.00 | 35 | 1009.4 |
| 20260830173015 | 97 | 198 | 2.0 | 7.0 | 0.00 | 0.00 | 0.00 | 35 | 1009.5 |
| 20260830171513 | 97 | 72 | 3.0 | 7.0 | 0.00 | 0.00 | 0.00 | 35 | 1009.6 |
| 20260830170010 | 97 | 101 | 3.0 | 7.0 | 0.00 | 0.00 | 0.00 | 35 | 1009.6 |
| 20260830164530 | 96 | 70 | 2.0 | 7.0 | 0.00 | 0.00 | 0.00 | 37 | 1009.6 |
| 20260830163008 | 95 | 103 | 1.0 | 6.0 | 0.00 | 0.00 | 0.00 | 38 | 1009.5 |
| 20260830161507 | 94 | 86 | 2.0 | 8.0 | 0.00 | 0.00 | 0.00 | 38 | 1009.5 |
| 20260830160006 | 93 | 107 | 2.0 | 8.0 | 0.00 | 0.00 | 0.00 | 39 | 1009.6 |
| 20260830154505 | 92 | 39 | 4.0 | 8.0 | 0.00 | 0.00 | 0.00 | 40 | 1009.4 |
| 20260830153013 | 91 | 105 | 2.0 | 8.0 | 0.00 | 0.00 | 0.00 | 42 | 1009.6 |
| 20260830151503 | 90 | 89 | 1.0 | 9.0 | 0.00 | 0.00 | 0.00 | 43 | 1009.6 |
| 20260830150002 | 89 | 52 | 4.0 | 8.0 | 0.00 | 0.00 | 0.00 | 44 | 1009.7 |
| 20260830144600 | 88 | 80 | 4.0 | 11.0 | 0.00 | 0.00 | 0.00 | 45 | 1009.7 |
| 20260830143059 | 87 | 78 | 2.0 | 10.0 | 0.00 | 0.00 | 0.00 | 46 | 1009.7 |
| 20260830141600 | 86 | 98 | 3.0 | 7.0 | 0.00 | 0.00 | 0.00 | 48 | 1009.5 |
| 20260830140026 | 85 | 103 | 1.0 | 7.0 | 0.00 | 0.00 | 0.00 | 50 | 1009.5 |
| 20260830134525 | 0 | 0.0 | 0.0 | 0.00 | 0.00 | 0.00 | 1009.4 | ||
| 20260830133048 | 0 | 0.0 | 0.0 | 0.00 | 0.00 | 0.00 | 1009.2 | ||
| 20260830131545 | 0 | 0.0 | 0.0 | 0.00 | 0.00 | 0.00 | 1009.0 | ||
| 20260830130009 | 0 | 0.0 | 0.0 | 0.00 | 0.00 | 0.00 | 1008.6 | ||
| 20260830124505 | 0 | 0.0 | 0.0 | 0.00 | 0.00 | 0.00 | 1008.5 | ||
| 20260830123058 | 0 | 0.0 | 0.0 | 0.00 | 0.00 | 0.00 | 1008.3 | ||
| 20260830121554 | 0 | 0.0 | 0.0 | 0.00 | 0.00 | 0.00 | 1007.9 | ||
| 20260830120101 | 0 | 0.0 | 0.0 | 0.00 | 0.00 | 0.00 | 1007.8 |